CW9414 Weather Reports


time (UTC)temp
F
wind
direction
speed
knots
gust
knots
rain 1hr
in
rain 24hr
in
rain mn
in
humidity
%
barometer
mb
20260507020409 75 9 2.6 5.2 0.00 0.00 0.00 72 1006.9
20260507015409 75 327 0.0 5.2 0.00 0.00 0.00 73 1006.6
20260507014410 75 280 0.9 2.6 0.00 0.00 0.00 73 1006.5
20260507013409 75 37 0.9 4.3 0.00 0.00 0.00 73 1006.5
20260507012409 76 310 0.0 3.5 0.00 0.00 0.00 72 1006.1
20260507011410 77 15 0.0 6.1 0.00 0.00 0.00 72 1006.0
20260507010413 77 286 1.7 6.1 0.00 0.00 0.00 72 1006.0
20260507005410 78 35 0.0 8.7 0.00 0.00 0.00 72 1005.6
20260507004409 79 333 3.5 4.3 0.00 0.00 0.00 71 1005.4
20260507003409 80 325 0.0 6.1 0.00 0.00 0.00 70 1005.4
20260507002409 82 334 0.0 4.3 0.00 0.00 0.00 68 1005.1
20260507001410 84 304 1.7 5.2 0.00 0.00 0.00 66 1004.6
20260507000410 86 213 0.0 2.6 0.00 0.00 0.00 69 1004.7
20260506235409 87 213 1.7 3.5 0.00 0.00 0.00 66 1004.5
20260506234409 87 213 0.0 0.9 0.00 0.00 0.00 66 1004.5
20260506233409 87 213 0.9 1.7 0.00 0.00 0.00 66 1004.5
20260506232413 87 213 0.9 1.7 0.00 0.00 0.00 65 1004.4
20260506231413 88 213 0.9 1.7 0.00 0.00 0.00 65 1004.2
20260506230409 88 213 0.0 1.7 0.00 0.00 0.00 65 1004.2
20260506225410 88 213 0.9 1.7 0.00 0.00 0.00 65 1004.1
20260506224409 88 213 2.6 3.5 0.00 0.00 0.00 64 1004.3
20260506223410 89 213 0.0 2.6 0.00 0.00 0.00 64 1004.3
20260506222410 89 213 0.9 2.6 0.00 0.00 0.00 63 1004.1
20260506221409 89 214 0.9 1.7 0.00 0.00 0.00 63 1004.1
20260506220409 89 214 1.7 2.6 0.00 0.00 0.00 63 1004.1
20260506215409 89 186 2.6 5.2 0.00 0.00 0.00 63 1004.1
20260506214410 89 186 2.6 4.3 0.00 0.00 0.00 64 1004.1
20260506213409 88 165 1.7 5.2 0.00 0.00 0.00 65 1004.1
20260506212410 88 181 1.7 3.5 0.00 0.00 0.00 67 1004.1
20260506211412 88 181 0.0 4.3 0.00 0.00 0.00 67 1004.5
20260506210409 88 180 0.0 4.3 0.00 0.00 0.00 66 1004.5
20260506205410 88 175 0.9 4.3 0.00 0.00 0.00 67 1004.6
20260506204412 87 177 1.7 3.5 0.00 0.00 0.00 69 1004.6
20260506203409 87 166 2.6 3.5 0.00 0.00 0.00 69 1004.6
20260506202409 86 166 0.9 4.3 0.00 0.00 0.00 71 1004.8
20260506201409 86 167 1.7 4.3 0.00 0.00 0.00 71 1004.9
20260506200409 86 161 0.0 4.3 0.00 0.00 0.00 70 1004.9
20260506195409 87 158 0.9 5.2 0.00 0.00 0.00 68 1004.9
20260506194409 87 159 0.9 3.5 0.00 0.00 0.00 68 1005.0
20260506193409 87 153 0.9 4.3 0.00 0.00 0.00 69 1005.0
20260506192409 87 152 0.9 6.1 0.00 0.00 0.00 69 1005.1
20260506191409 87 145 2.6 8.7 0.00 0.00 0.00 69 1005.4
20260506190412 87 165 4.3 4.3 0.00 0.00 0.00 70 1005.4
20260506185410 86 146 0.9 4.3 0.00 0.00 0.00 71 1005.6
20260506184409 85 151 1.7 3.5 0.00 0.00 0.00 73 1005.6
20260506183409 85 151 0.9 4.3 0.00 0.00 0.00 74 1005.6
20260506182409 85 151 4.3 4.3 0.00 0.00 0.00 75 1006.0
20260506181409 84 151 0.0 2.6 0.00 0.00 0.00 75 1006.2
20260506180409 84 151 0.0 1.7 0.00 0.00 0.00 76 1006.2
20260506175409 83 151 0.0 3.5 0.00 0.00 0.00 78 1006.6
20260506174412 83 151 0.0 1.7 0.00 0.00 0.00 78 1006.8
20260506173409 83 151 0.0 3.5 0.00 0.00 0.00 79 1006.8
20260506172409 82 151 1.7 3.5 0.00 0.00 0.00 79 1006.8
20260506171409 82 151 0.9 1.7 0.00 0.00 0.00 80 1007.0
20260506170409 82 151 0.0 4.3 0.00 0.00 0.00 81 1007.0
20260506165409 81 151 0.9 3.5 0.00 0.00 0.00 82 1007.0
20260506164409 81 151 2.6 4.3 0.00 0.00 0.00 82 1007.0
20260506163412 80 151 0.9 2.6 0.00 0.00 0.00 82 1007.0
20260506162409 80 151 0.0 3.5 0.00 0.00 0.00 82 1006.6
20260506161409 80 151 3.5 5.2 0.00 0.00 0.00 82 1006.5
20260506160409 80 150 0.0 4.3 0.00 0.00 0.00 83 1006.5
20260506155409 80 150 0.0 0.9 0.00 0.00 0.00 84 1006.4
20260506154409 80 150 0.0 3.5 0.00 0.00 0.00 84 1006.4
20260506153412 80 150 0.9 1.7 0.00 0.00 0.00 85 1006.4
20260506152409 79 150 0.0 0.9 0.00 0.00 0.00 86 1006.0
20260506151412 79 150 0.0 1.7 0.00 0.00 0.00 86 1006.0
20260506150409 79 150 0.9 3.5 0.00 0.00 0.00 87 1006.0
20260506145409 79 150 0.9 4.3 0.00 0.00 0.00 88 1005.6
20260506144409 78 150 0.9 4.3 0.00 0.00 0.00 89 1005.4
20260506143409 78 150 0.0 2.6 0.00 0.00 0.00 90 1005.4
20260506142409 78 150 0.0 2.6 0.00 0.00 0.00 91 1005.5
20260506141412 78 150 1.7 1.7 0.00 0.00 0.00 92 1005.5
20260506140409 77 150 1.7 4.3 0.00 0.00 0.00 92 1005.5
20260506135409 77 150 0.0 2.6 0.00 0.00 0.00 92 1005.5
20260506134409 77 150 0.0 2.6 0.00 0.00 0.00 93 1005.5
20260506133408 77 150 0.0 1.7 0.00 0.00 0.00 93 1005.5
20260506132410 76 150 0.9 0.9 0.00 0.00 0.00 93 1005.6
20260506131409 76 150 0.0 0.9 0.00 0.00 0.00 92 1005.6
20260506130413 76 150 0.0 1.7 0.00 0.00 0.00 92 1005.6
20260506125409 76 150 0.0 1.7 0.00 0.00 0.00 92 1005.6
20260506124408 76 150 1.7 1.7 0.00 0.00 0.00 92 1005.5
20260506123409 75 150 0.0 0.0 0.00 0.00 0.00 92 1005.5
20260506122412 75 150 0.0 1.7 0.00 0.00 0.00 92 1005.4
20260506121409 75 150 0.0 1.7 0.00 0.00 0.00 92 1005.2
20260506120409 75 150 0.0 1.7 0.00 0.00 0.00 91 1005.2
20260506115409 75 150 0.0 0.0 0.00 0.00 0.00 91 1005.0
20260506114409 75 150 0.0 0.9 0.00 0.00 0.00 91 1004.9
20260506113408 75 150 0.0 1.7 0.00 0.00 0.00 91 1004.9
20260506112409 75 150 1.7 1.7 0.00 0.00 0.00 91 1004.7
20260506111408 75 150 0.0 1.7 0.00 0.00 0.00 90 1004.5
20260506110408 75 150 0.0 4.3 0.00 0.00 0.00 90 1004.5
20260506105409 75 150 0.0 2.6 0.00 0.00 0.00 90 1004.4
20260506104409 75 150 0.0 0.0 0.00 0.00 0.00 89 1004.5
20260506103408 75 150 0.0 1.7 0.00 0.00 0.00 89 1004.5
20260506102409 75 150 0.0 0.0 0.00 0.00 0.00 89 1004.5
20260506101412 75 150 0.0 0.0 0.00 0.00 0.00 89 1004.5
20260506100412 76 150 0.0 2.6 0.00 0.00 0.00 89 1004.5
20260506095408 76 150 2.6 4.3 0.00 0.00 0.00 89 1004.2
20260506094409 76 150 0.0 3.5 0.00 0.00 0.00 88 1004.1
20260506093408 76 150 0.0 3.5 0.00 0.00 0.00 88 1004.1
20260506092408 76 150 0.9 4.3 0.00 0.00 0.00 88 1004.1
20260506091408 76 150 3.5 5.2 0.00 0.00 0.00 88 1004.4
20260506090408 77 150 2.6 3.5 0.00 0.00 0.00 88 1004.4
20260506085409 77 150 0.0 3.5 0.00 0.00 0.00 88 1004.5
20260506084408 77 150 2.6 5.2 0.00 0.00 0.00 88 1004.5
20260506083408 77 150 1.7 3.5 0.00 0.00 0.00 87 1004.5
20260506082408 77 150 0.9 4.3 0.00 0.00 0.00 87 1004.6
20260506081411 77 150 2.6 3.5 0.00 0.00 0.00 87 1004.6
20260506080408 77 150 0.9 4.3 0.00 0.00 0.00 87 1004.6
20260506073409 77 155 1.7 4.3 0.00 0.00 0.00 87 1005.0
20260506072409 77 155 1.7 5.2 0.00 0.00 0.00 87 1005.0
20260506071408 77 156 2.6 3.5 0.00 0.00 0.00 87 1005.1
20260506070412 77 156 0.0 2.6 0.00 0.00 0.00 87 1005.1
20260506062408 77 155 0.0 2.6 0.00 0.00 0.00 86 1005.5
20260506061409 77 155 0.0 3.5 0.00 0.00 0.00 86 1005.5
20260506060412 77 155 0.0 4.3 0.00 0.00 0.00 86 1005.5
20260506051408 77 155 0.0 3.5 0.00 0.00 0.00 85 1005.3
20260506050408 78 155 0.0 3.5 0.00 0.00 0.00 84 1005.3
20260506044408 78 155 0.0 2.6 0.00 0.00 0.00 83 1005.5
20260506043408 78 155 0.9 1.7 0.00 0.00 0.00 83 1005.5
20260506042408 78 155 0.0 3.5 0.00 0.00 0.00 83 1005.1
20260506041408 78 155 0.0 6.1 0.00 0.00 0.00 82 1005.3
20260506040412 78 164 1.7 3.5 0.00 0.00 0.00 82 1005.3
20260506035412 78 170 0.0 2.6 0.00 0.00 0.00 82 1005.1
20260506034408 78 168 0.9 4.3 0.00 0.00 0.00 81 1004.8
20260506033408 78 170 0.0 3.5 0.00 0.00 0.00 81 1004.8
20260506032408 78 142 2.6 6.1 0.00 0.00 0.00 81 1004.6
20260506031408 79 161 2.6 4.3 0.00 0.00 0.00 81 1004.6
20260506030408 79 165 0.9 4.3 0.00 0.00 0.00 80 1004.6
20260506025412 79 167 2.6 5.2 0.00 0.00 0.00 80 1004.5
20260506024411 79 196 0.0 4.3 0.00 0.00 0.00 79 1004.2
20260506023408 79 170 2.6 4.3 0.00 0.00 0.00 79 1004.2
20260506022409 79 155 0.9 4.3 0.00 0.00 0.00 79 1004.0
20260506021408 79 166 0.9 3.5 0.00 0.00 0.00 78 1003.9